www.pogodaiklimat.ru

Погода и климат >> Архив погоды >> Казахстан >> Бейнеу


ПОГОДА в Бейнеу

  • Прогноз погоды в Бейнеу
  • Монитор погоды в Бейнеу
  • Климат города

АРХИВ ПОГОДЫ в Бейнеу

Время (UTC), дата Ветер
(напр.,м/с)
 
Видим.   Явления Облачность Т
(С)
Тd
(С)
f
(%)
Тe
(С)
Тes
(С)
Комфортность P
(гПа)
Po
(гПа)
Тmin
(С)
Tmax
(С)
R
(мм)
R24
(мм)
S
(см)
00 10.07 З 2 н/о 3/0
[Ac cuf]
+25.6 +14.0 49 +28 +28 жарко 1009.3
03 10.07 З 2 20 км ясно +26.9 +15.1 48 +30 +33 душно 1010.4
06 10.07 СВ 1 20 км ясно +36.0 +5.8 15 +33 +50 жарко 1010.8 +24.6
09 10.07 З 2 20 км ясно +38.7 +6.7 14 +36 +54 опасность
солнечного
удара
1009.9
12 10.07 С 6 20 км ясно +39.6 +4.0 11 +36 +40 очень
жарко
1009.4
15 10.07 С 6 20 км ясно +38.1 +2.5 11 +35 +35 очень
жарко
1009.6 +40.2
18 10.07 С 3 н/о 3/0
[Ac lent]
+32.1 +1.3 14 +29 +29 жарко 1010.6 +40.2
21 10.07 штиль 0 н/о ясно +28.7 +8.0 27 +28 +28 жарко 1012.0 1012.0
00 11.07 ЮВ 2 н/о ясно +27.5 +4.0 22 +26 +26 жарко 1010.5
03 11.07 ЮВ 3 20 км ясно +29.1 +4.1 20 +27 +30 жарко 1011.3
06 11.07 ЮВ 4 20 км ясно +37.0 +4.1 13 +34 +44 очень
жарко
1011.3 +26.0
09 11.07 Ю 2 20 км 6/0
[Ac lent]
+39.6 +5.5 12 +37 +46 очень
жарко
1009.7
12 11.07 С 2 20 км 4/0
[Ac lent]
+41.0 +5.1 11 +38 +44 очень
жарко
1007.8
15 11.07 С 2 20 км 3/0
[Ac lent]
+40.2 +4.6 11 +37 +37 очень
жарко
1006.2 +41.5
18 11.07 штиль 0 н/о ясно +33.9 +4.8 16 +31 +31 жарко 1006.9 +41.5
21 11.07 штиль 0 н/о ясно +30.4 +4.0 19 +28 +28 жарко 1006.7
00 12.07 штиль 0 н/о 4/0
[Ac trans]
+27.8 +4.1 22 +26 +26 жарко 1006.3
03 12.07 СВ 2 20 км 4/0
[Ac trans]
+30.8 +5.8 21 +29 +32 жарко 1006.8
06 12.07 С 4 20 км ясно +37.9 +5.1 13 +35 +45 очень
жарко
1006.4 +26.0
09 12.07 С 6 20 км ясно +39.3 +5.1 12 +36 +44 очень
жарко
1005.6
12 12.07 С 5 20 км 3/0
[Ac cast]
+39.4 +2.7 10 +36 +40 очень
жарко
700.7 1004.9
15 12.07 С 5 20 км ясно +38.1 +0.9 10 +35 +35 очень
жарко
1004.4 +40.5
18 12.07 С 3 н/о 5/5 600 м
[Sc]
+34.0 +1.9 13 +31 +31 жарко 1004.3 +40.5
21 12.07 С 2 н/о 3/0
[Ac lent]
+32.0 +3.4 16 +29 +29 жарко 1004.7
00 13.07 С 2 н/о 6/6 600 м
[Cb cap]
+29.2 +5.6 22 +28 +28 жарко 1003.7
03 13.07 штиль 0 20 км 6/6 600 м
[Sc]
+29.9 +5.9 22 +28 +30 жарко 1004.2
06 13.07 С 3 20 км 9/0
[Ac cuf]
+32.4 +6.7 20 +31 +35 жарко 1004.1 +28.0
09 13.07 штиль 0 20 км 9/0
[Ac cuf]
+35.2 +7.8 19 +33 +43 жарко 1003.7
12 13.07 штиль 0 20 км 9/0
[Ac cuf Ci sp]
+36.0 +8.1 18 +34 +39 очень
жарко
1003.0
15 13.07 штиль 0 20 км 8/0
[Ac cuf Ci sp]
+36.0 +7.8 18 +34 +34 очень
жарко
1002.3 +36.4
18 13.07 Ю 4 н/о 8/0
[Ac cuf Ci sp]
+32.6 +6.7 20 +31 +31 жарко 1003.0 +36.4
21 13.07 Ю 3 н/о 6/0
[Ac cuf Ci sp]
+30.1 +6.1 22 +29 +29 жарко 1003.0
00 14.07 штиль 0 н/о 6/0
[Ac lent Ci sp]
+27.0 +5.9 26 +26 +26 жарко 1003.7
03 14.07 штиль 0 20 км 3/0
[Ac cuf]
+28.0 +6.4 25 +27 +30 жарко 1004.5
06 14.07 СВ 3 20 км ясно +34.6 +4.8 16 +32 +44 жарко 1005.0 +25.6
09 14.07 СВ 4 20 км 3/0
[Ci fib]
+36.4 +4.6 14 +34 +45 очень
жарко
1003.7
12 14.07 СВ 3 20 км ясно +38.0 +5.0 13 +35 +42 очень
жарко
1002.9
15 14.07 С 2 20 км 3/0
[Ac lent]
+36.9 +4.0 13 +34 +34 очень
жарко
1002.4 +38.2
18 14.07 В 2 н/о ясно +31.1 +5.1 19 +29 +29 жарко 1002.9 +38.2
21 14.07 В 4 н/о ясно +29.8 +4.8 20 +28 +28 жарко 1002.5
00 15.07 В 4 н/о 10/10 1000 м
[Sc]
+29.7 +6.2 23 +28 +28 жарко 1003.2
03 15.07 ЮВ 2 20 км 10/10 1000 м
[Sc]
+28.8 +7.3 26 +28 +28 жарко 1004.3
06 15.07 Ю 6 20 км 10/10 600 м
[Sc]
+32.9 +4.6 17 +30 +30 жарко 1004.0 +27.9
09 15.07 СВ 6 20 км 8/0
[Ac lent]
+35.9 +6.4 16 +33 +36 жарко 1003.1
12 15.07 СВ 8 20 км 8/0
[Ac lent]
+37.0 +6.3 15 +34 +35 очень
жарко
1002.1
15 15.07 В 10 20 км 4/0
[Ci sp]
+36.8 +5.5 15 +34 +34 очень
жарко
1001.6 +37.7
18 15.07 В 6 н/о ясно +31.7 +6.8 21 +30 +30 жарко 1001.9 +37.7
21 15.07 В 6 н/о ясно +30.8 +6.7 22 +29 +29 жарко 1001.4
00 16.07 ЮВ 2 н/о 6/0
[Ac lent]
+26.6 +6.1 27 +26 +26 жарко 1002.1
03 16.07 В 4 20 км 8/8 600 м
[Sc]
+28.3 +6.7 25 +27 +28 жарко 1002.4
06 16.07 ЮВ 8 20 км 3/0
[Ac cuf]
+37.5 +5.0 14 +35 +37 очень
жарко
1002.1 +26.2
09 16.07 В 10 20 км ясно +38.8 +4.6 12 +36 +37 очень
жарко
1001.0
12 16.07 В 8 20 км ясно +40.3 +3.4 10 +37 +39 очень
жарко
1000.5
15 16.07 В 9 20 км 3/0
[Ci sp]
+40.7 +5.6 12 +38 +38 очень
жарко
998.9 +41.6
18 16.07 В 10 н/о ясно +35.6 +7.0 17 +33 +33 жарко 999.1 +40.6

 

Местоположение метеостанции Бейнеу (Мангистауская область, Казахстан): широта 45.32 долгота 55.20 высота над уровнем моря 74 м.

В архиве по умолчанию представлена погода в Бейнеу за последнюю неделю. Архивные данные за месяц целиком и за предыдущие месяцы, начиная с января 2011 года, Вы можете получить, выбрав интересующий диапазон дат из раскрывающегося списка и нажав кнопку "Ввод!".


*Определитесь, кто Вы:
робот инопланетянин человек

Внимание! Время в таблицах - всемирное. Для получения местного времени необходимо прибавить поправку, которая в Бейнеу равна 4 ч.

Смотрите также архив погоды в соседних городах и на ближайших метеорологических станциях:

Погода в Саме (Мангистауская область, Казахстан) (72 км)
Погода в Опорной (Мангистауская область, Казахстан) (102 км)
Погода в Каракалпакии (Каракалпакстан, Узбекистан) (103 км)
Погода в Сай-Утесе (Мангистауская область, Казахстан) (172 км)
Погода в Кульсары (Атырауская область, Казахстан) (192 км)
Погода в Жаслыке (Каракалпакстан, Узбекистан) (244 км)
Погода в Кызане (Мангистауская область, Казахстан) (262 км)
Погода в Аккудуке (Мангистауская область, Казахстан) (275 км)
Погода в Тущыбеке (Мангистауская область, Казахстан) (288 км)
Погода в Жанаозене (Мангистауская область, Казахстан) (295 км)

Пояснения к столбцам:

Ветер - указаны скорость ветра в м/с - средняя за 10 мин, порывы в срок и между сроками (в фигурных скобках) и направление, откуда дует ветер: С - северный, СВ - северо-восточный, В - восточный, ЮВ - юго-восточный, Ю - южный, ЮЗ - юго-западный, З - западный, СЗ - северо-западный.
Видимость - горизонтальная дальность видимости в метрах или километрах. При видимости от 1 до 10 км при отсутствии осадков обычно наблюдается дымка, при ухудшении видимости до 1 км и менее - туман. В сухую погоду видимость может ухудшаться дымом, пылью или мглою.
Явления - указаны атмосферные явления, наблюдавшиеся в срок или в последний час перед сроком; фигурными скобками обозначены явления, наблюдавшиеся между сроками (за 1-3 часа до срока); квадратными скобками обозначены град или гололедные отложения с указанием их диаметра в мм.
Облачность - указаны через наклонную черту общая и нижняя облачность в баллах и высота нижней границы облаков в метрах; квадратными скобками обозначены формы облаков: Ci - перистые, Cs - перисто-слоистые, Cc - перисто-кучевые, Ac - высококучевые, As - высокослоистые, Sc - слоисто-кучевые, Ns - слоисто-дождевые, Cu - кучевые, Cb - кучево-дождевые. Подробнее классификацию облаков см. в Атласе облаков (PDF).
T - Температура воздуха - температура, измеренная на высоте 2 м над землей.
Td - Температура точки росы - температура, при понижении до которой содержащийся в воздухе водяной пар достигнет насыщения.
f - Относительная влажность воздуха - влажноcть воздуха, измеренная на высоте 2 м над землей.
Te - Эффективная температура - температура, которую ощущает одетый по сезону человек в тени. Характеристика душности погоды. При расчете учитывается влияние влажности воздуха и скорости ветра на теплоощущения человека.
Tes - Эффективная температура на солнце - температура, которую ощущает человек, с поправкой на солнечный нагрев. Характеристика знойности погоды. Зависит от высоты солнца над горизонтом, облачности и скорости ветра. Ночью, в пасмурную погоду, а также при ветре 12 м/с и более поправка равна нулю.
P - Атмосферное давление - приведенное к уровню моря атмосферное давление.
Po - Атмосферное давление - измеренное на уровне метеостанции атмосферное давление.
Tmin - Минимальная температура - минимум температуры воздуха на высоте 2 м над землей.
Tmax - Максимальная температура - максимум температуры воздуха на высоте 2 м над землей.
R - Количество осадков - Количество выпавших осадков за период времени, мм. При наведении курсора мыши на число - период времени, за который выпало указанное количество осадков.
R24 - Количество осадков - Количество выпавших осадков за 24 часа, мм.
S - Снежный покров - Высота снежного покрова, см. При наведении курсора мыши на число - состояние снежного покрова и степень покрытия местности в баллах.